Location: Beneden-Haastrecht
(52.0012°N, 4.7557°E)
Time: 03:12:56
(UTC+00:00)

Cosmos 2228 - Pass Details

Date: 24 October 2020
Orbit: 590 x 617 km, 82.5° (Epoch: 24 November)

Event Time Altitude Azimuth Distance (km) Brightness Sun altitude
Rises 17:58:45 0° 193° (SSW) 2,814 6.6 -14.7°
Reaches altitude 10° 18:00:56 10° 195° (SSW) 1,920 5.8 -15.0°
Maximum altitude 18:05:10 75° 282° (WNW) 621 3.2 -15.7°
Drops below altitude 10° 18:09:29 10° 8° (N) 1,947 5.5 -16.3°
Sets 18:11:43 0° 10° (N) 2,858 6.4 -16.7°
